Flag for France Weather past 2 weeks in Rennes, France

Now
50 °F

Sunny.


Feels Like: 47 °F
Forecast: 38 / 55 °F
Wind: 8 mph from North

Location: Rennes Airport

Current Time: Apr 27, 2015 at 9:44:43 PM

Latest Report: Apr 27, 2015 at 9:00 PM


Visibility: 10 mi

Pressure: 29.98 "Hg

Humidity: 47%

Dew point: 30 °F

Location of RennesLocation

Historic Weather in Rennes — Graph

°F

Rennes temperature yesterday

Maximum temperature yesterday: 64 °F (at 3:30 PM)
Minimum temperature yesterday: 50 °F (at 2:00 AM)
Average temperature yesterday: 56 °F

Past Weeks' High & Low Weather Summary

 TemperatureHumidityPressure
High81 °F (Apr 15, 4:00 PM)100% (Apr 13, 3:30 AM)30.48 "Hg (Apr 13, 3:30 AM)
Low36 °F (Apr 20, 6:30 AM)31% (Apr 21, 5:30 PM)29.62 "Hg (Apr 26, 6:00 PM)
Average58 °F68%30.05 "Hg
* Reported Apr 12 8:00 PM — Apr 27 8:30 PM, Rennes, Weather by CustomWeather, © 2015

Note: Actual official high and low records may vary slightly from our data, if they occured in-between our weather recording intervals... More about our weather records

Advertising

Rennes weather history for previous 24 hours

 ConditionsComfort  
Time TempWeatherWind HumidityBarometerVisibility
8:30 PM
Mon, Apr 27
52 °FSunny.13 mph41%29.98 "Hg10 mi
8:00 PM54 °FSunny.15 mph35%29.95 "Hg10 mi
7:30 PM54 °FSunny.16 mph38%29.95 "Hg10 mi
7:00 PM55 °FPassing clouds.13 mph36%29.95 "HgN/A
6:30 PM55 °FPassing clouds.15 mph36%29.92 "HgN/A
6:00 PM57 °FSunny.14 mph33%29.92 "Hg10 mi
5:30 PM57 °FPassing clouds.13 mph36%29.92 "HgN/A
5:00 PM57 °FPassing clouds.13 mph41%29.92 "HgN/A
4:30 PM57 °FPassing clouds.16 mph39%29.92 "HgN/A
4:00 PM55 °FSunny.12 mph44%29.89 "Hg10 mi
3:30 PM59 °FSunny.15 mph42%29.89 "Hg10 mi
3:00 PM59 °FPassing clouds.14 mph39%29.89 "HgN/A
2:30 PM57 °FPassing clouds.17 mph39%29.89 "HgN/A
2:00 PM59 °FPassing clouds.15 mph39%29.86 "HgN/A
1:30 PM57 °FPassing clouds.16 mph41%29.86 "HgN/A
1:00 PM57 °FPassing clouds.13 mph44%29.86 "HgN/A
12:30 PM55 °FScattered clouds.13 mph47%29.86 "HgN/A
12:00 PM57 °FScattered clouds.13 mph48%29.86 "HgN/A
11:30 AM55 °FPassing clouds.12 mph59%29.86 "HgN/A
11:00 AM55 °FSunny.15 mph55%29.83 "Hg10 mi
10:30 AM54 °FPassing clouds.14 mph63%29.83 "HgN/A
10:00 AM52 °FOvercast.13 mph67%29.83 "HgN/A
9:30 AM50 °FOvercast.14 mph71%29.80 "HgN/A
9:00 AM50 °FOvercast.12 mph76%29.80 "HgN/A
8:30 AM50 °FOvercast.12 mph76%29.80 "HgN/A
8:00 AM50 °FPassing clouds.10 mph76%29.80 "HgN/A
7:30 AM50 °FOvercast.9 mph76%29.77 "HgN/A
7:00 AM48 °FMostly cloudy.10 mph82%29.77 "HgN/A
6:30 AM50 °FOvercast.10 mph82%29.74 "HgN/A
6:00 AM50 °FMostly cloudy.7 mph82%29.74 "HgN/A
5:30 AM50 °FMostly cloudy.9 mph82%29.74 "HgN/A
5:00 AM50 °FOvercast.8 mph82%29.74 "HgN/A
4:30 AM50 °FOvercast.10 mph88%29.74 "HgN/A
4:00 AM50 °FOvercast.10 mph88%29.74 "HgN/A
3:30 AM52 °FOvercast.9 mph82%29.74 "HgN/A
3:00 AM52 °FOvercast.10 mph82%29.74 "HgN/A
2:30 AM52 °FOvercast.12 mph88%29.74 "Hg6 mi
2:00 AM52 °FOvercast.12 mph88%29.71 "Hg6 mi
1:30 AM52 °FOvercast.9 mph88%29.71 "HgN/A
1:00 AM54 °FMostly cloudy.10 mph82%29.71 "HgN/A
12:30 AM54 °FMostly cloudy.10 mph88%29.71 "HgN/A
12:00 AM54 °FOvercast.9 mph94%29.71 "HgN/A
11:30 PM
Sun, Apr 26
54 °FMostly cloudy.8 mph94%29.71 "HgN/A
11:00 PM54 °FPassing clouds.9 mph94%29.71 "HgN/A
10:30 PM54 °FOvercast.10 mph94%29.68 "HgN/A
10:00 PM54 °FOvercast.7 mph88%29.68 "HgN/A
9:30 PM55 °FSunny.7 mph82%29.68 "Hg10 mi
9:00 PM55 °FSunny.8 mph82%29.68 "Hg10 mi
Weather by CustomWeather, © 2015

See weather overviewHow to use our weather pages